Weather History for Casper, WY

Change the Weather History Date:

Thursday, February 28, 2013

  Actual Average Record
Temperature  
Mean Temperature 24 °F 30 °F  
Max Temperature 33 °F 42 °F 61 °F (1972)
Min Temperature 14 °F 18 °F -20 °F (1996)
Degree Days  
Heating Degree Days 41 35  
Month to date heating degree days 1099 1070  
Since 1 July heating degree days 5050 5448  
Cooling Degree Days 0 0  
Month to date cooling degree days 0 0  
Year to date cooling degree days 0 0  
Moisture  
Dew Point 11 °F    
Average Humidity 65    
Maximum Humidity 80    
Minimum Humidity 49    
Precipitation  
Precipitation 0.00 in 0.02 in 0.21 in (1994)
Month to date precipitation 0.50 0.57  
Year to date precipitation 0.77 1.08  
Snow  
Snow 0.00 in 0.30 in - ()
Month to date snowfall 9.5 9.8  
Since 1 July snowfall 32.7 49.4  
Snow Depth 1.00 in    
Sea Level Pressure  
Sea Level Pressure 30.34 in    
Wind  
Wind Speed 15 mph (SW)    
Max Wind Speed 28 mph    
Max Gust Speed 43 mph    
Visibility 10 miles    
Events      
T = Trace of Precipitation, MM = Missing Value Source: NWS Daily Summary

Daily Weather History Graph

Daily Weather History Graph

Search for Another Location

Airport:

Trip Planner

Search our weather history database for the weather conditions in past years. The results will help you decide how hot, cold, wet, or windy it might be!

Date:

Astronomy

Feb. 28, 2013 Rise Set
Actual Time 6:42 AM MST 5:54 PM MST
Civil Twilight 6:14 AM MST 6:22 PM MST
Nautical Twilight 5:41 AM MST 6:55 PM MST
Astronomical Twilight 5:08 AM MST 7:28 PM MST
Moon 9:31 PM MST (2/28) 7:48 AM MST (2/28)
Length of Visible Light 12h 08m
Length of Day
11h 11m
Waning Gibbous, 90% of the Moon is Illuminated
Feb 28
Waning Gibbous
Mar 4
Last Quarter
Mar 11
New
Mar 19
First Quarter
Mar 27
Full

Hourly Weather History & Observations

Time (MST) Temp. Windchill Dew Point Humidity Pressure Visibility Wind Dir Wind Speed Gust Speed Precip Events Conditions
12:53 AM 19.9 °F 6.2 °F 8.1 °F 60% 30.34 in - SW 15.0 mph - N/A   Clear
1:53 AM 19.9 °F 5.7 °F 9.0 °F 62% 30.33 in - SW 16.1 mph - N/A   Clear
2:53 AM 19.0 °F - 8.1 °F 62% 30.33 in - North - - N/A   Clear
3:53 AM 19.0 °F - 7.0 °F 59% 30.32 in - North - - N/A   Clear
4:53 AM 17.1 °F 3.0 °F 6.1 °F 62% 30.35 in 10.0 mi SW 13.8 mph - N/A   Clear
5:53 AM 18.0 °F 5.4 °F 6.1 °F 60% 30.36 in 10.0 mi SW 11.5 mph - N/A   Clear
6:53 AM 17.6 °F 3.7 °F 6.8 °F 63% 30.20 in 10.0 mi SW 13.8 mph 23.0 mph N/A   Clear
7:53 AM 19.9 °F 5.7 °F 7.0 °F 57% 30.39 in 10.0 mi SW 16.1 mph 24.2 mph N/A   Clear
8:53 AM 21.9 °F 6.5 °F 9.0 °F 58% 30.38 in 10.0 mi SSW 20.7 mph - N/A   Scattered Clouds
9:53 AM 24.1 °F 8.3 °F 9.0 °F 53% 30.33 in 10.0 mi SSW 24.2 mph 28.8 mph N/A   Partly Cloudy
10:53 AM 24.1 °F 8.3 °F 10.0 °F 55% 30.33 in 10.0 mi SW 24.2 mph 32.2 mph N/A   Overcast
11:53 AM 27.0 °F 12.2 °F 10.0 °F 49% 30.33 in 10.0 mi SSW 24.2 mph 31.1 mph N/A   Mostly Cloudy
12:53 PM 28.9 °F 15.1 °F 12.9 °F 51% 30.31 in 10.0 mi SW 23.0 mph - N/A   Clear
1:53 PM 30.0 °F 16.9 °F 14.0 °F 51% 30.29 in 10.0 mi SW 21.9 mph 28.8 mph N/A   Clear
2:53 PM 30.9 °F 19.4 °F 16.0 °F 54% 30.28 in 10.0 mi SW 17.3 mph - N/A   Clear
3:53 PM 33.1 °F 22.2 °F 17.1 °F 52% 30.27 in 10.0 mi WSW 17.3 mph - N/A   Clear
4:53 PM 30.9 °F 21.2 °F 16.0 °F 54% 30.31 in 10.0 mi WSW 12.7 mph - N/A   Partly Cloudy
5:53 PM 26.1 °F 17.6 °F 16.0 °F 66% 30.34 in 10.0 mi WSW 8.1 mph - N/A   Clear
6:53 PM 21.9 °F 14.5 °F 14.0 °F 72% 30.36 in 10.0 mi WSW 5.8 mph - N/A   Clear
7:53 PM 19.9 °F 10.1 °F 12.0 °F 71% 30.38 in 10.0 mi SW 8.1 mph - N/A   Clear
8:53 PM 19.0 °F 9.0 °F 10.9 °F 71% 30.38 in 10.0 mi West 8.1 mph - N/A   Clear
9:53 PM 16.0 °F 6.3 °F 10.0 °F 77% 30.40 in - West 6.9 mph - N/A   Clear
10:53 PM 15.1 °F 7.7 °F 9.0 °F 77% 30.41 in - West 4.6 mph - N/A   Clear
11:53 PM 15.1 °F 6.4 °F 9.0 °F 77% 30.41 in - West 5.8 mph - N/A   Clear